(160031) = 2002 EG29 = 1998 HD48

Discovered at Socorro on 1998-04-20 by LINEAR.

Orbit

Orbit type: Main Belt

Note: WebGL enabled browser required.

epoch2024-03-31.0
epoch JD2460400.5
perihelion date2024-03-03.50296
perihelion JD2460373.00296
argument of perihelion (°)145.99796
ascending node (°)126.34645
inclination (°)4.60669
eccentricity0.1545593
perihelion distance (AU)2.2042406
Tisserand w.r.t. Jupiter3.4
ΔV w.r.t. Earth (km/sec)9.4
semimajor axis (AU)2.6072090
mean anomaly (°)6.43763
mean daily motion (°/day)0.23412080
aphelion distance (AU)3.010
period (years)4.21
P-vector [x]0.04236121
P-vector [y]-0.93359760
P-vector [z]-0.35581040
Q-vector [x]0.99700589
Q-vector [y]0.06255949
Q-vector [z]-0.04544840
absolute magnitude16.11
phase slope0.15
uncertainty0
referenceMPEC 2024-C74
observations used631
oppositions17
arc length (days)9153
first opposition used1998
last opposition used2023
residual rms (arc-secs)0.74
perturbers coarse indicatorM-v
perturbers precise indicator003Ek
first observation date used1998-03-25.0
last observation date used2023-04-16.0
computer nameMPCLINUX
JD of orbit computation2456760.677971
perihelion JD uncertainty (days)2.2595E-04
argument of perihelion uncertainty (°)1.1311E-04
ascending node uncertainty (°)1.0445E-04
inclination uncertainty (°)1.1819E-05
eccentricity uncertainty 1.0591E-07
perihelion distance uncertainty (AU)2.6469E-07
Minimum Orbit Intersection Distances (in AU)
for orbit epoch: 2460200.5, reference: E2024-C74
Mercury1.74467
Venus1.47906
Earth1.18903
Mars0.73678
Jupiter2.09194
Saturn6.04394
Uranus15.6622
Neptune26.9639

Observations

639 total observations over interval: 1994 06 06.22550 – 2023 04 16.600890
These data are available for download (format description).

Date (UT) J2000 RA J2000 Dec Magn Location Ref
1994 06 06.22550 15 18 17.76 -10 43 29.5 18.8 V 691 – Steward Observatory, Kitt Peak-Spacewatch MPS 79499
1994 06 06.25346 15 18 16.66 -10 43 31.2 19.8 V 691 – Steward Observatory, Kitt Peak-Spacewatch MPS 79499
1994 06 06.28207 15 18 15.47 -10 43 31.8 18.5 V 691 – Steward Observatory, Kitt Peak-Spacewatch MPS 79499
1998 03 25.34268 13 48 45.13 -03 35 54.5 19.0   704 – Lincoln Laboratory ETS, New Mexico MPS 56820
1998 03 25.36297 13 48 44.25 -03 35 47.7 19.8   704 – Lincoln Laboratory ETS, New Mexico MPS 56820
1998 03 25.38322 13 48 43.51 -03 35 41.0 19.9   704 – Lincoln Laboratory ETS, New Mexico MPS 56820
1998 03 25.40336 13 48 42.68 -03 35 34.9 19.6   704 – Lincoln Laboratory ETS, New Mexico MPS 56820
1998 03 25.42347 13 48 41.87 -03 35 27.4 19.6   704 – Lincoln Laboratory ETS, New Mexico MPS 56820
1998 04 20.27536 13 28 30.06 -01 01 24.4 18.5   704 – Lincoln Laboratory ETS, New Mexico MPS 1118
1998 04 20.29541 13 28 29.09 -01 01 19.7 18.5   704 – Lincoln Laboratory ETS, New Mexico MPS 1118
1998 04 20.31548 13 28 27.98 -01 01 11.7 18.9   704 – Lincoln Laboratory ETS, New Mexico MPS 1118
1998 04 20.33560 13 28 26.78 -01 01 06.0 18.4   704 – Lincoln Laboratory ETS, New Mexico MPS 1118
1998 04 21.19672 13 27 43.37 -00 56 40.9 19.3   704 – Lincoln Laboratory ETS, New Mexico MPS 1118
1998 04 21.23683 13 27 41.27 -00 56 27.3 18.6   704 – Lincoln Laboratory ETS, New Mexico MPS 1118
1998 04 21.25686 13 27 40.37 -00 56 22.2 18.9   704 – Lincoln Laboratory ETS, New Mexico MPS 1118
1998 04 21.27692 13 27 39.17 -00 56 15.9 19.1   704 – Lincoln Laboratory ETS, New Mexico MPS 1118
1998 04 22.16645 13 26 54.59 -00 51 45.0 19.0   704 – Lincoln Laboratory ETS, New Mexico MPS 1118
1998 04 22.18524 13 26 53.50 -00 51 40.2 19.7   704 – Lincoln Laboratory ETS, New Mexico MPS 1118
1998 04 22.20407 13 26 52.73 -00 51 33.7 19.7   704 – Lincoln Laboratory ETS, New Mexico MPS 1118
1998 04 22.22297 13 26 51.70 -00 51 30.8 19.7   704 – Lincoln Laboratory ETS, New Mexico MPS 1118
1998 04 22.24167 13 26 50.50 -00 51 23.9 19.9   704 – Lincoln Laboratory ETS, New Mexico MPS 1118
2002 03 09.31741 11 58 48.24 +06 04 27.5 19.5   704 – Lincoln Laboratory ETS, New Mexico MPS 55719
2002 03 09.33735 11 58 47.36 +06 04 35.0 19.1   704 – Lincoln Laboratory ETS, New Mexico MPS 55719
2002 03 09.35729 11 58 46.28 +06 04 43.9 19.4   704 – Lincoln Laboratory ETS, New Mexico MPS 55719
2002 03 09.37701 11 58 45.36 +06 04 52.0 19.4   704 – Lincoln Laboratory ETS, New Mexico MPS 55719
2002 03 12.31880 11 56 21.95 +06 25 56.5 19.2   704 – Lincoln Laboratory ETS, New Mexico MPS 55719
2002 03 12.33774 11 56 20.98 +06 26 02.7 19.7   704 – Lincoln Laboratory ETS, New Mexico MPS 55719
2002 03 12.35639 11 56 20.05 +06 26 12.8 19.0   704 – Lincoln Laboratory ETS, New Mexico MPS 55719
2002 03 12.37487 11 56 19.07 +06 26 19.3 19.9   704 – Lincoln Laboratory ETS, New Mexico MPS 55719
2002 04 02.33831 11 38 48.43 +08 41 54.7 20.9   644 – Palomar Mountain/NEAT MPS 55719
2002 04 02.35944 11 38 47.44 +08 42 02.1 20.1   644 – Palomar Mountain/NEAT MPS 55719
2002 04 02.38050 11 38 46.36 +08 42 07.7 20.8   644 – Palomar Mountain/NEAT MPS 55719
2003 07 25.41091 22 39 19.75 -10 45 33.5 19.4   644 – Palomar Mountain/NEAT MPS 90360
2003 07 25.43480 22 39 19.18 -10 45 40.8 19.4   644 – Palomar Mountain/NEAT MPS 90360
2003 07 25.46118 22 39 18.57 -10 45 48.5 19.4   644 – Palomar Mountain/NEAT MPS 90360
2003 08 23.28674 22 20 25.78 -13 54 46.4 18.1   704 – Lincoln Laboratory ETS, New Mexico MPS 83167
2003 08 23.32463 22 20 23.82 -13 55 02.1 19.0   704 – Lincoln Laboratory ETS, New Mexico MPS 83167
2003 08 23.33711 22 20 23.15 -13 55 07.7 18.6   704 – Lincoln Laboratory ETS, New Mexico MPS 83167
2003 08 26.31438 22 17 53.92 -14 15 35.9 18.5   704 – Lincoln Laboratory ETS, New Mexico MPS 83167
2003 08 26.32702 22 17 53.28 -14 15 41.6 19.2   704 – Lincoln Laboratory ETS, New Mexico MPS 83167
2003 08 26.33985 22 17 52.58 -14 15 47.3 19.5   704 – Lincoln Laboratory ETS, New Mexico MPS 83167
2003 08 31.26485 22 13 48.75 -14 48 08.1 18.6   704 – Lincoln Laboratory ETS, New Mexico MPS 83890
2003 08 31.27685 22 13 48.14 -14 48 13.1 19.1   704 – Lincoln Laboratory ETS, New Mexico MPS 83890
2003 08 31.28870 22 13 47.56 -14 48 17.0 19.3   704 – Lincoln Laboratory ETS, New Mexico MPS 83890
2003 09 04.30652 22 10 37.06 -15 12 41.1 20.8   608 – Haleakala-AMOS MPS 83890
2003 09 04.31747 22 10 36.52 -15 12 45.4 20.6   608 – Haleakala-AMOS MPS 83890
2003 09 04.32830 22 10 36.00 -15 12 49.3 20.4   608 – Haleakala-AMOS MPS 83890
2006 01 31.38828 10 46 04.47 +10 42 04.1 20.1 V 691 – Steward Observatory, Kitt Peak-Spacewatch MPS 161558
2006 01 31.40564 10 46 03.84 +10 42 09.7 20.3 V 691 – Steward Observatory, Kitt Peak-Spacewatch MPS 161558
2006 01 31.42303 10 46 03.18 +10 42 15.6 20.1 V 691 – Steward Observatory, Kitt Peak-Spacewatch MPS 161558
2006 02 20.43712 10 30 57.13 +12 50 16.3 18.8 V 703 – Catalina Sky Survey MPS 163546
2006 02 20.44656 10 30 56.48 +12 50 20.6 19.2 V 703 – Catalina Sky Survey MPS 163546
2006 02 20.45602 10 30 55.94 +12 50 26.2 19.3 V 703 – Catalina Sky Survey MPS 163546
2006 02 20.46550 10 30 55.47 +12 50 30.0 19.2 V 703 – Catalina Sky Survey MPS 163546
2006 02 21.27317 10 30 13.20 +12 55 57.8 19.6 R 699 – Lowell Observatory-LONEOS MPS 163546
2006 02 21.29876 10 30 11.91 +12 56 07.5   699 – Lowell Observatory-LONEOS MPS 163546
2006 02 21.32436 10 30 10.48 +12 56 18.3   699 – Lowell Observatory-LONEOS MPS 163546
2006 02 21.34996 10 30 09.00 +12 56 28.9   699 – Lowell Observatory-LONEOS MPS 163546
2006 02 28.36201 10 23 54.36 +13 43 02.3 20.0   704 – Lincoln Laboratory ETS, New Mexico MPS 164904
2006 02 28.37364 10 23 53.76 +13 43 06.6 20.1   704 – Lincoln Laboratory ETS, New Mexico MPS 164904
2006 02 28.38527 10 23 52.99 +13 43 09.9 19.2   704 – Lincoln Laboratory ETS, New Mexico MPS 164904
2007 06 16.41132 20 25 09.84 -16 41 55.6 19.5 V 691 – Steward Observatory, Kitt Peak-Spacewatch MPS 211022
2007 06 16.42902 20 25 09.57 -16 41 58.0 19.4 V 691 – Steward Observatory, Kitt Peak-Spacewatch MPS 211022
2007 06 16.44671 20 25 09.34 -16 42 00.5 19.4 V 691 – Steward Observatory, Kitt Peak-Spacewatch MPS 211022
2007 07 10.55187 20 12 28.56 -18 16 06.9 18.7 V 428 – Reedy Creek MPS 211703
2007 07 10.57575 20 12 27.32 -18 16 15.0 18.1 V 428 – Reedy Creek MPS 211703
2007 07 20.24426 20 04 17.84 -19 07 45.8 19.2   704 – Lincoln Laboratory ETS, New Mexico MPS 212242
2007 07 20.25512 20 04 17.19 -19 07 48.6 19.2   704 – Lincoln Laboratory ETS, New Mexico MPS 212242
2007 07 20.26581 20 04 16.64 -19 07 51.2 19.1   704 – Lincoln Laboratory ETS, New Mexico MPS 212242
2007 08 09.15534 19 48 16.25 -20 48 44.9 19.4   704 – Lincoln Laboratory ETS, New Mexico MPS 212998
2007 08 09.17973 19 48 15.04 -20 48 52.6 19.7   704 – Lincoln Laboratory ETS, New Mexico MPS 212998
2007 08 09.19195 19 48 14.56 -20 48 55.7 19.4   704 – Lincoln Laboratory ETS, New Mexico MPS 212998
2007 08 09.20428 19 48 14.21 -20 48 57.4 19.6   704 – Lincoln Laboratory ETS, New Mexico MPS 212998
2008 10 10.42492 04 11 29.43 +14 50 09.4 20.1 V G96 – Mt. Lemmon Survey MPS 260176
2008 10 10.43056 04 11 29.32 +14 50 08.6 20.2 V G96 – Mt. Lemmon Survey MPS 260176
2008 10 10.43620 04 11 29.22 +14 50 08.0 20.0 V G96 – Mt. Lemmon Survey MPS 260176
2008 10 10.44174 04 11 29.07 +14 50 07.0 19.9 V G96 – Mt. Lemmon Survey MPS 260176
2008 11 02.31198 03 57 39.31 +13 47 04.4 19.6 V G96 – Mt. Lemmon Survey MPS 264463
2008 11 02.32229 03 57 38.80 +13 47 02.6 19.5 V G96 – Mt. Lemmon Survey MPS 264463
2008 11 02.33271 03 57 38.26 +13 47 00.7 19.9 V G96 – Mt. Lemmon Survey MPS 264463
2008 11 02.34304 03 57 37.72 +13 46 58.8 19.5 V G96 – Mt. Lemmon Survey MPS 264463
2008 11 21.29568 03 40 08.14 +12 52 49.9 19.2 V G96 – Mt. Lemmon Survey MPS 266221
2008 11 21.30119 03 40 07.82 +12 52 49.1 19.1 V G96 – Mt. Lemmon Survey MPS 266221
2008 11 21.30674 03 40 07.46 +12 52 48.4 19.1 V G96 – Mt. Lemmon Survey MPS 266221
2008 11 21.31238 03 40 07.14 +12 52 47.3 19.1 V G96 – Mt. Lemmon Survey MPS 266221
2008 12 08.12889 03 25 21.00 +12 20 43.7 19.7 V G96 – Mt. Lemmon Survey MPS 269043
2008 12 08.13323 03 25 20.78 +12 20 43.2 19.5 V G96 – Mt. Lemmon Survey MPS 269043
